Вернуться в каталог

OPS 0856 DEB

АктивенPO
NORAD 24676·DEBRIS·🇺🇸 United States

Запущен Aug 19, 1966 с Vandenberg Space Force Base

Loading…

Ближайшие Пролёты (ближайшие 24 часа)

TLE

СвежийSource: Space-Track

Эпоха: Sep 13, 2026, 19:39 UTC

1 24676U 66077Q   26256.81942023 -.00001099  00000-0 -31521-1 0  9995
2 24676  88.4159  41.2072 2072022 163.4590 204.5857  9.03296284563470

Отслеживайте OPS 0856 DEB в реальном времени с AllMySat

Download on the App Store